CW5066 Weather Reports


time (UTC)temp
C
wind
direction
speed
KPH
gust
KPH
rain 1hr
cm
rain 24hr
cm
rain mn
cm
humidity
%
barometer
mb
20260904040517 15 0 4.8 12.9 0.00 0.00 0.00 43 1024.2
20260904035517 15 0 4.8 11.3 0.00 0.00 0.00 43 1024.3
20260904034516 15 0 4.8 11.3 0.00 0.00 0.00 43 1024.5
20260904033537 15 23 4.8 11.3 0.00 0.00 0.00 43 1023.9
20260904032517 15 0 6.4 12.9 0.00 0.00 0.00 43 1024.3
20260904031536 15 0 4.8 11.3 0.00 0.00 0.00 41 1024.1
20260904030516 15 0 4.8 11.3 0.00 0.00 0.00 41 1024.3
20260904025516 15 0 6.4 14.5 0.00 0.00 0.00 40 1023.6
20260904024536 15 0 8.0 17.7 0.00 0.00 0.00 39 1023.6
20260904023516 15 0 6.4 16.1 0.00 0.00 0.00 39 1023.5
20260904022537 16 23 4.8 11.3 0.00 0.00 0.00 38 1022.7
20260904021516 16 23 3.2 8.0 0.00 0.00 0.00 38 1023.2
20260904020536 16 23 3.2 6.4 0.00 0.00 0.00 38 1022.9
20260904015516 16 23 3.2 8.0 0.00 0.00 0.00 37 1022.3
20260904014517 17 23 1.6 6.4 0.00 0.00 0.00 36 1022.9
20260904013516 18 45 1.6 8.0 0.00 0.00 0.00 34 1023.4
20260904012517 18 68 1.6 6.4 0.00 0.00 0.00 33 1023.5
20260904011516 19 23 3.2 8.0 0.00 0.00 0.00 32 1024.1
20260904010516 20 23 1.6 4.8 0.00 0.00 0.00 32 1024.1
20260904005516 20 45 1.6 3.2 0.00 0.00 0.00 31 1024.7
20260904004516 21 68 1.6 4.8 0.00 0.00 0.00 30 1025.3
20260904003516 22 0.0 3.2 0.00 0.00 0.00 29 1025.5
20260904002516 23 23 3.2 8.0 0.00 0.00 0.00 27 1026.1
20260904001516 24 45 1.6 6.4 0.00 0.00 0.00 26 1026.9
20260904000516 25 68 3.2 9.7 0.00 0.00 0.00 26 1027.5
20260903235516 25 0 3.2 11.3 0.00 0.00 0.00 24 1027.3
20260903234536 25 23 6.4 14.5 0.00 0.00 0.00 25 1027.4
20260903233516 25 45 4.8 14.5 0.00 0.00 0.00 26 1027.5
20260903232516 25 23 6.4 12.9 0.00 0.00 0.00 26 1026.8
20260903231516 25 23 3.2 11.3 0.00 0.00 0.00 25 1027.2
20260903230516 25 23 4.8 14.5 0.00 0.00 0.00 26 1027.4
20260903225516 25 23 6.4 14.5 0.00 0.00 0.00 25 1027.4
20260903224516 25 23 4.8 16.1 0.00 0.00 0.00 27 1026.9
20260903223516 25 23 4.8 14.5 0.00 0.00 0.00 27 1026.9
20260903222516 24 68 3.2 11.3 0.00 0.00 0.00 27 1027.0
20260903221536 23 90 4.8 11.3 0.00 0.00 0.00 27 1027.2
20260903220536 25 45 3.2 12.9 0.00 0.00 0.00 28 1027.4
20260903215516 24 45 3.2 12.9 0.00 0.00 0.00 27 1027.4
20260903214516 25 23 6.4 16.1 0.00 0.00 0.00 26 1028.1
20260903213516 26 45 3.2 12.9 0.00 0.00 0.00 26 1028.6
20260903212515 25 23 4.8 16.1 0.00 0.00 0.00 27 1028.7
20260903211516 25 113 3.2 16.1 0.00 0.00 0.00 27 1028.1
20260903210515 24 0 8.0 20.9 0.00 0.00 0.00 26 1028.2
20260903205516 24 45 6.4 19.3 0.00 0.00 0.00 28 1028.5
20260903204536 23 45 9.7 24.1 0.00 0.00 0.00 28 1027.9
20260903203515 24 23 8.0 16.1 0.00 0.00 0.00 27 1028.4
20260903202515 24 90 4.8 12.9 0.00 0.00 0.00 27 1028.6
20260903201515 23 23 6.4 16.1 0.00 0.00 0.00 29 1028.8
20260903200516 22 0 4.8 17.7 0.00 0.00 0.00 27 1028.5
20260903195515 22 203 6.4 14.5 0.00 0.00 0.00 18 1027.5
20260903194515 22 180 6.4 16.1 0.00 0.00 0.00 19 1027.4
20260903193515 21 203 6.4 19.3 0.00 0.00 0.00 20 1027.0
20260903192515 21 203 12.9 24.1 0.00 0.00 0.00 21 1027.6
20260903191515 21 248 6.4 16.1 0.00 0.00 0.00 21 1027.8
20260903190515 21 225 6.4 19.3 0.00 0.00 0.00 24 1028.0
20260903185515 20 270 6.4 17.7 0.00 0.00 0.00 23 1027.9
20260903184515 20 180 14.5 37.0 0.00 0.00 0.00 23 1027.6
20260903183515 20 203 11.3 22.5 0.00 0.00 0.00 23 1027.7
20260903182537 19 203 11.3 27.4 0.00 0.00 0.00 25 1027.9
20260903181517 19 203 9.7 19.3 0.00 0.00 0.00 25 1027.8
20260903180517 18 180 12.9 29.0 0.00 0.00 0.00 26 1027.6
20260903175517 18 225 6.4 16.1 0.00 0.00 0.00 27 1027.7
20260903174517 18 248 8.0 32.2 0.00 0.00 0.00 29 1027.9
20260903173517 18 180 8.0 27.4 0.00 0.00 0.00 28 1027.7
20260903172537 18 225 8.0 17.7 0.00 0.00 0.00 29 1027.8
20260903171517 17 180 11.3 19.3 0.00 0.00 0.00 31 1027.9
20260903170517 17 225 6.4 19.3 0.00 0.00 0.00 30 1027.6
20260903165517 17 113 1.6 6.4 0.00 0.00 0.00 33 1027.1
20260903164517 17 158 4.8 16.1 0.00 0.00 0.00 32 1027.0
20260903163537 16 180 8.0 17.7 0.00 0.00 0.00 35 1027.2
20260903162517 16 158 4.8 14.5 0.00 0.00 0.00 35 1026.9
20260903161517 16 180 9.7 19.3 0.00 0.00 0.00 37 1026.3
20260903160517 16 203 8.0 19.3 0.00 0.00 0.00 37 1026.2
20260903155517 15 225 8.0 20.9 0.00 0.00 0.00 39 1026.2
20260903154537 15 158 4.8 12.9 0.00 0.00 0.00 40 1026.1
20260903153517 15 180 1.6 12.9 0.00 0.00 0.00 41 1025.5
20260903152517 15 158 8.0 16.1 0.00 0.00 0.00 42 1025.6
20260903151516 15 158 6.4 12.9 0.00 0.00 0.00 42 1025.5
20260903150517 14 158 4.8 11.3 0.00 0.00 0.00 43 1025.0
20260903145517 14 203 3.2 9.7 0.00 0.00 0.00 43 1024.9
20260903144516 13 158 4.8 11.3 0.00 0.00 0.00 46 1024.9
20260903143517 13 113 1.6 6.4 0.00 0.00 0.00 47 1024.4
20260903142516 13 0.0 1.6 0.00 0.00 0.00 49 1024.5
20260903141516 12 0.0 3.2 0.00 0.00 0.00 48 1024.4
20260903140516 12 315 1.6 4.8 0.00 0.00 0.00 50 1024.4
20260903135517 12 0 1.6 4.8 0.00 0.00 0.00 51 1024.4
20260903134517 11 158 1.6 4.8 0.00 0.00 0.00 52 1023.7
20260903133516 11 90 1.6 3.2 0.00 0.00 0.00 52 1023.6
20260903132516 11 113 1.6 4.8 0.00 0.00 0.00 52 1023.3
20260903131516 11 113 3.2 8.0 0.00 0.00 0.00 52 1023.8
20260903130516 11 135 1.6 3.2 0.00 0.00 0.00 51 1023.7
20260903125516 11 113 1.6 3.2 0.00 0.00 0.00 51 1023.7
20260903124516 11 180 4.8 8.0 0.00 0.00 0.00 50 1023.6
20260903123516 12 180 6.4 11.3 0.00 0.00 0.00 50 1023.5
20260903122516 11 180 4.8 9.7 0.00 0.00 0.00 50 1024.0
20260903121516 11 180 3.2 6.4 0.00 0.00 0.00 50 1023.9
20260903120516 11 203 3.2 6.4 0.00 0.00 0.00 51 1024.0
20260903115516 11 248 1.6 4.8 0.00 0.00 0.00 51 1024.4
20260903114516 11 225 1.6 6.4 0.00 0.00 0.00 50 1024.3
20260903113516 11 248 1.6 4.8 0.00 0.00 0.00 50 1024.3
20260903112556 11 203 1.6 3.2 0.00 0.00 0.00 52 1023.1
20260903111516 10 0.0 3.2 0.00 0.00 0.00 52 1022.9
20260903110517 11 0.0 3.2 0.00 0.00 0.00 52 1023.1
20260903105516 11 180 1.6 6.4 0.00 0.00 0.00 52 1023.1
20260903104516 11 0.0 3.2 0.00 0.00 0.00 52 1023.3
20260903103516 11 113 1.6 3.2 0.00 0.00 0.00 52 1023.3
20260903102517 11 90 1.6 4.8 0.00 0.00 0.00 51 1025.0
20260903101516 12 0.0 3.2 0.00 0.00 0.00 49 1025.5
20260903100516 12 248 3.2 6.4 0.00 0.00 0.00 49 1024.8
20260903095516 11 0.0 1.6 0.00 0.00 0.00 50 1024.9
20260903094516 11 68 1.6 3.2 0.00 0.00 0.00 51 1025.7
20260903093516 11 90 1.6 3.2 0.00 0.00 0.00 52 1025.7
20260903092515 11 0.0 3.2 0.00 0.00 0.00 53 1025.9
20260903091516 11 0.0 3.2 0.00 0.00 0.00 53 1026.0
20260903090516 12 315 1.6 4.8 0.00 0.00 0.00 53 1026.0
20260903085535 12 270 3.2 11.3 0.00 0.00 0.00 52 1026.5
20260903084535 12 270 1.6 11.3 0.00 0.00 0.00 51 1026.5
20260903083515 12 293 3.2 8.0 0.00 0.00 0.00 48 1026.4
20260903082516 12 293 3.2 6.4 0.00 0.00 0.00 46 1026.3
20260903081515 12 248 1.6 3.2 0.00 0.00 0.00 46 1026.4
20260903080515 12 248 1.6 4.8 0.00 0.00 0.00 46 1026.5
20260903075516 12 203 4.8 12.9 0.00 0.00 0.00 46 1027.0
20260903074515 12 68 3.2 6.4 0.00 0.00 0.00 49 1026.4
20260903073515 12 45 1.6 3.2 0.00 0.00 0.00 49 1026.5
20260903072515 13 270 1.6 8.0 0.00 0.00 0.00 47 1027.1
20260903071536 12 203 6.4 11.3 0.00 0.00 0.00 46 1027.0
20260903070515 13 203 9.7 14.5 0.00 0.00 0.00 46 1027.2
20260903065535 13 180 4.8 8.0 0.00 0.00 0.00 46 1026.1
20260903064515 13 225 1.6 11.3 0.00 0.00 0.00 45 1026.8
20260903063515 13 180 1.6 4.8 0.00 0.00 0.00 46 1027.0
20260903062537 14 0.0 6.4 0.00 0.00 0.00 45 1027.4
20260903061517 14 225 1.6 3.2 0.00 0.00 0.00 45 1027.5
20260903060517 13 248 1.6 1.6 0.00 0.00 0.00 46 1027.5
20260903055516 13 0.0 3.2 0.00 0.00 0.00 47 1026.8
20260903054516 13 0.0 0.0 0.00 0.00 0.00 48 1026.9
20260903053516 14 180 1.6 3.2 0.00 0.00 0.00 48 1026.2
20260903052516 14 270 1.6 4.8 0.00 0.00 0.00 48 1026.9
20260903051516 14 203 3.2 8.0 0.00 0.00 0.00 47 1026.9
20260903050536 14 180 6.4 11.3 0.00 0.00 0.00 49 1026.6
20260903045515 13 158 3.2 4.8 0.00 0.00 0.00 50 1026.6
20260903044515 13 158 3.2 6.4 0.00 0.00 0.00 50 1026.7
20260903043516 14 203 1.6 4.8 0.00 0.00 0.00 50 1026.9
20260903042536 14 180 3.2 4.8 0.00 0.00 0.00 49 1026.8
20260903041515 14 180 4.8 6.4 0.00 0.00 0.00 49 1027.0